User: anonymous
Location: Caltech
(34.1382°N, 118.1253°W)
Time: 07:29:32
(UTC-07:00)
Language:

PANSAT - Orbit

View from above orbital plane
View from above orbital plane
View from above satellite
View from above satellite

Ground track
Ground track

The orbit data is extracted from the following two-line orbital elements,

1 25520U 98064B   14274.14197634  .00005237  00000-0  20130-3 0  5873
2 25520 028.4579 232.9119 0004202 192.5180 279.4259 15.24053753882812
Epoch (UTC): 01 October 2014 03:24:26
Eccentricity: 0.0004202
inclination: 28.4579°
perigee height: 491 km
apogee height: 496 km
right ascension of ascending node: 232.9119°
argument of perigee: 192.5180°
revolutions per day: 15.24053753
mean anomaly at epoch: 279.4259°
orbit number at epoch: 88281

The dashed part of the orbit path shows where the satellite is in the earth's shadow,  

DLR